Regional Weather Roundup
Issued by NWS

Home | Current Version | Previous Version | Text Only | Print | Product List | Glossary Off
Versions: 1 2 3 4 5 6 7 8 9 10 11 12 13 14 15 16 17 18 19 20 21 22 23 24 25 26 27 28 29 30 31 32 33 34 35 36 37 38 39 40 41 42 43 44 45 46 47 48 49 50

000
ASUS43 KLOT 171100
RWRIL

ILLINOIS REGIONAL WEATHER ROUNDUP
NATIONAL WEATHER SERVICE CHICAGO/ROMEOVILLE IL
600 AM CDT WED SEP 17 2014

NOTE: "FAIR" INDICATES FEW OR NO CLOUDS BELOW 12,000 FEET WITH NO
SIGNIFICANT WEATHER AND/OR OBSTRUCTIONS TO VISIBILITY.

* THESE STATIONS ARE NOT UNDER NWS QUALITY CONTROL. THEY ALSO MAY NOT
  REPORT WEATHER SUCH AS PRECIPITATION OR FOG.

ILZ001-002-007-009-015-016-024-171200-
NORTHWEST ILLINOIS

CITY           SKY/WX    TMP DP  RH WIND       PRES   REMARKS
MOLINE         CLOUDY    48  45  89 E3        30.03F
STERLING*      PTCLDY    41  37  87 SE3       30.05S
$$

ILZ003-004-008-010-011-017-018-171200-
NORTH CENTRAL ILLINOIS

CITY           SKY/WX    TMP DP  RH WIND       PRES   REMARKS
ROCKFORD       PTCLDY    42  39  89 CALM      30.07R
FREEPORT*      CLEAR     40  38  95 CALM      30.07R
ROCHELLE*      PTCLDY    39  38  94 CALM      30.06R
$$

ILZ005-006-012>014-019>023-171200-
NORTHEAST ILLINOIS

CITY           SKY/WX    TMP DP  RH WIND       PRES   REMARKS
CHICAGO-OHARE  PTCLDY    50  45  83 CALM      30.04S
CHICAGO-MIDWAY MOCLDY    51  45  79 SW3       30.05S
AURORA         PTCLDY    40  37  89 CALM      30.06R
LANSING*       PTCLDY    43  43  99 CALM      30.06R
WAUKEGAN       CLEAR     44  43  96 CALM      30.04R FOG
DUPAGE AIRPORT PTCLDY    43  40  89 CALM      30.04S
WHEELING       PTCLDY    45  42  89 CALM      30.05S
NORTHERLY ISL    N/A     53  45  74 SW2         N/A
$$

LMZ740>746-171200-
SOUTHERN LAKE MICHIGAN

STATION/POSITION SKY/WX   TEMP    WIND        PRES    VSBY  WAVE
                          AIR SEA DIR/SP/G                  HT/PER
                          (F)     (DEG/KT/KT) (MB)    (MI)  (FT/S)
SOUTHERN BUOY              61 64  220/  8/ 10 1017.3F         1
WAUKEGAN HARBOR            53     250/  8/  9   N/A
HARRISON CRIB              55     180/  9/ 10   N/A
BURNHAM HARBOR             53      CALM  /  5   N/A
CALUMET HARBOR             51     190/  3/  4 1016.3F
MICHIGAN CITY              50     130/  9/ 11   N/A
MICHIGAN CITY 6N           55 64  160/ 12/ 16   N/A           1/ 2
ST. JOSEPH                 57 66  160/ 12/ 14   N/A           1/ 2
$$

ILZ025>027-034>036-040-047-049-050-058-095>099-171200-
WEST-CENTRAL ILLINOIS

CITY           SKY/WX    TMP DP  RH WIND       PRES   REMARKS
QUINCY         MOCLDY    54  50  86 S6        30.01S
GALESBURG*     MOCLDY    48  46  95 SE5       30.02F
MACOMB*        FOG       44  44 100 CALM      30.05S VSB 1/2
$$

ILZ028>032-037-038-041>044-048-051>054-059>061-171200-
CENTRAL ILLINOIS

CITY           SKY/WX    TMP DP  RH WIND       PRES   REMARKS
DECATUR        CLEAR     45  44  97 CALM      30.07S
PEORIA         PTCLDY    50  46  86 CALM      30.05S
SPRINGFIELD    CLEAR     47  45  93 NE3       30.06S
TAYLORVILLE    NOT AVBL
$$

ILZ033-039-045-046-055>057-062-063-171200-
EAST-CENTRAL ILLINOIS

CITY           SKY/WX    TMP DP  RH WIND       PRES   REMARKS
CHAMPAIGN      CLEAR     45  43  93 W3        30.07R
MATTOON        CLEAR     46  45  96 CALM      30.07R FOG
$$

ILZ079-100>102-171200-
SOUTHWEST ILLINOIS

CITY           SKY/WX    TMP DP  RH WIND       PRES   REMARKS
BELLEVILLE     CLEAR     47  47  99 E2        30.05F FOG
CAHOKIA*       FOG       47  47 100 SE3       30.04F VSB 1/4
SPARTA*        CLEAR     45  44  98 CALM      30.06F
$$

ILZ064>066-069>071-074>076-080>082-084>086-088>090-092>094-171200-
SOUTH-CENTRAL ILLINOIS

CITY           SKY/WX    TMP DP  RH WIND       PRES   REMARKS
CARBONDALE     CLEAR     44  43  96 CALM      30.07S FOG
MARION         FOG       45  45 100 CALM      30.07S VSB<1/4
MT. VERNON     CLEAR     43  39  87 CALM      30.07S
$$

ILZ067-068-072-073-078-083-087-091-171200-
SOUTHEAST ILLINOIS

CITY           SKY/WX    TMP DP  RH WIND       PRES   REMARKS
LAWRENCEVILLE  FOG       44  44 100 CALM      30.08S VSB 1/4
ROBINSON*      FOG       44  44 100 CALM      30.09S VSB 1/2
$$

ABBREVIATIONS USED IN REMARKS
   TC - TEMPERATURE IN CELSIUS
  WCI - WIND CHILL INDEX
   HX - HEAT INDEX
  VSB - VISIBILITY
$$




USA.gov is the U.S. government's official web portal to all federal, state and local government web resources and services.